Location: Newark
(40.3500°N, 15.2333°E)
Time: 12:54:23
(UTC+00:00)

Vanguard 1 - Pass Details

Date: 27 January 2020
Orbit: 650 x 3833 km, 34.2° (Epoch: 24 February)

Event Time Altitude Azimuth Distance (km) Brightness Sun altitude
Rises 13:35:22 0° 217° (SW) 3,765 14.6 22.3°
Reaches altitude 10° 13:39:21 10° 196° (SSW) 2,427 13.6 21.9°
Maximum altitude 13:42:32 16° 159° (SSE) 1,828 12.0 21.5°
Drops below altitude 10° 13:45:19 10° 120° (ESE) 2,077 11.7 21.2°
Sets 13:48:19 0° 97° (E) 2,955 12.2 20.8°
